User: anonymous
Location: Unspecified
(0.0000°N, 0.0000°E)
Time: 17:26:50
(UTC+00:00)
Language:

LANDSAT 8 - Orbit

View from above orbital plane
View from above orbital plane
View from above satellite
View from above satellite

Ground track
Ground track

The orbit data is extracted from the following two-line orbital elements,

1 39084U 13008A   14202.66469011 -.00000172  00000-0 -28094-4 0  5421
2 39084 098.2180 272.4010 0001017 074.4913 285.6374 14.57110337 76478
Epoch (UTC): 21 July 2014 15:57:09
Eccentricity: 0.0001017
inclination: 98.2180°
perigee height: 702 km
apogee height: 703 km
right ascension of ascending node: 272.4010°
argument of perigee: 74.4913°
revolutions per day: 14.57110337
mean anomaly at epoch: 285.6374°
orbit number at epoch: 7647

The dashed part of the orbit path shows where the satellite is in the earth's shadow,  

DLR